Regional Weather Roundup
Issued by NWS State College, PA

Home | Current Version | Previous Version | Text Only | Print | Product List | Glossary On
Versions: 1 2 3 4 5 6 7 8 9 10 11 12 13 14 15 16 17 18 19 20 21 22 23 24 25 26 27 28 29 30 31 32 33 34 35 36 37 38 39 40 41 42 43 44 45 46 47 48 49 50
000
ASUS41 KCTP 011710
RWRCTP

REGIONAL WEATHER ROUNDUP
NATIONAL WEATHER SERVICE STATE COLLEGE PA
100 PM EDT WED OCT 01 2014

Note: "fair" indicates few or no clouds below 12,000 feet with no
significant weather and/or obstructions to visibility.

* = STATION THAT DOES NOT REPORT PRECIPITATION /E.G. RAIN...SNOW...ETC/
    THUNDER OR FOG.

PAZ002>004-007>009-013>016-020>023-029>032-011800-
WESTERN PENNSYLVANIA

CITY           SKY/WX    TMP DP  RH WIND       PRES   REMARKS
ERIE           MOSUNNY   70  57  63 N5        30.04F
MEADVILLE      SUNNY     66  57  72 E5        30.05F
FRANKLIN*      SUNNY     64  55  72 SE6       30.06F
NEW CASTLE       N/A     60  56  87 CALM      30.07F
BEAVER COUNTY  CLOUDY    61  55  82 CALM      30.06S
BUTLER*        CLOUDY    57  54  88 CALM      30.07F
PITTSBURGH INT CLOUDY    61  55  81 CALM      30.05F
PITTSBURGH     CLOUDY    61  55  81 N3        30.04F FOG
INDIANA*       SUNNY     70  55  60 SE12      30.07F
LATROBE        MOSUNNY   70  61  73 CALM      30.04F
WASHINGTON CO* CLOUDY    61  55  82 CALM      30.07S
$$

PAZ004>006-010>012-017>019-024>028-033>037-041-042-045-046-049>053-011800-
CENTRAL PENNSYLVANIA

CITY           SKY/WX    TMP DP  RH WIND       PRES   REMARKS
BRADFORD       MOSUNNY   63  55  75 SE8       30.08F
DUBOIS         PTSUNNY   64  57  78 NE7       30.06F
CLEARFIELD     PTSUNNY   63  57  81 E6        30.08F
JOHNSTOWN      PTSUNNY   65  54  67 SE8       30.06F
ALTOONA        CLOUDY    64  59  83 VRB3      30.07F
STATE COLLEGE  CLOUDY    63  57  82 CALM      30.08F
WILLIAMSPORT   CLOUDY    67  58  72 E3        30.05F
SELINSGROVE    CLOUDY    64  57  78 CALM      30.07F
FT INDIANTOWN  PTSUNNY   68  65  90 VRB3      30.06F
CAPITAL CITY   CLOUDY    67  57  70 CALM      30.06F
HARRISBURG     CLOUDY    66  59  78 CALM      30.06S
YORK           CLOUDY    66  58  75 NE6       30.07S
$$

PAZ038>040-043-044-047-048-054-055-060>062-067>071-011800-
EASTERN PENNSYLVANIA

CITY           SKY/WX    TMP DP  RH WIND       PRES   REMARKS
SCRANTON       PTSUNNY   72  53  51 VRB3      30.04F
MOUNT POCONO   CLOUDY    63  53  70 E7        30.08F
ALLENTOWN      MOSUNNY   72  55  55 E7        30.05F
QUAKERTOWN*    CLOUDY    72  55  56 N5        30.05F
READING        CLOUDY    70  55  59 CALM      30.04F
LANCASTER      CLOUDY    67  58  72 N7        30.06S
COATESVILLE    PTSUNNY   68  57  68 N6        30.05F
POTTSTOWN      PTSUNNY   69  55  60 VRB5      30.05F
BLUE BELL      PTSUNNY   72  57  60 E6        30.03F
DOYLESTOWN     CLOUDY    67  56  67 VRB5      30.04F
WILLOW GROVE   NOT AVBL
NORTH PHILA    CLOUDY    71  55  56 NE10      30.05F
PHILADELPHIA   PTSUNNY   71  57  61 NE10      30.03F
$$


USA.gov is the U.S. government's official web portal to all federal, state and local government web resources and services.